Flag for Germany Weather past 2 weeks in Uelzen, Lower Saxony, Germany

Now
32 °F

Chilly.


Feels Like: 25 °F
Forecast: 35 / 40 °F
Wind: 8 mph from Northwest

Location: Fassberg

Current Time: Jan 27, 2015 at 9:07:27 PM

Latest Report: Jan 27, 2015 at 8:20 PM


Visibility: N/A

Pressure: 30.07 "Hg

Humidity: 100%

Dew point: 32 °F

Location of UelzenLocation

Historic Weather in Uelzen — Graph

°F

Uelzen temperature yesterday

Maximum temperature yesterday: 41 °F (at 8:20 PM)
Minimum temperature yesterday: 36 °F (at 12:20 AM)
Average temperature yesterday: 37 °F

Past Weeks' High & Low Weather Summary

 TemperatureHumidityPressure
High50 °F (Jan 15, 5:20 PM)100% (Jan 21, 1:20 AM)30.30 "Hg (Jan 21, 1:20 AM)
Low25 °F (Jan 21, 8:20 AM)57% (Jan 16, 12:00 PM)29.42 "Hg (Jan 15, 5:00 PM)
Average36 °F87%29.92 "Hg
* Reported Jan 12 7:20 PM — Jan 27 7:20 PM, Uelzen, Weather by CustomWeather, © 2014

Note: Actual official high and low records may vary slightly from our data, if they occured in-between our weather recording intervals... More about our weather records

Advertising

Uelzen weather history for previous 24 hours

 ConditionsComfort  
Time TempWeatherWind HumidityBarometerVisibility
7:20 PM
Jan 27
34 °FPassing clouds.6 mph87%30.07 "HgN/A
6:20 PM36 °FPassing clouds.7 mph87%30.07 "HgN/A
5:20 PM36 °FPassing clouds.10 mph87%30.04 "HgN/A
4:20 PM41 °FPassing clouds.12 mph76%30.04 "HgN/A
3:20 PM41 °FPassing clouds.14 mph76%30.04 "HgN/A
2:20 PM43 °FScattered clouds.21 mph66%30.01 "HgN/A
1:20 PM41 °FPartly sunny.16 mph81%30.01 "HgN/A
12:20 PM41 °FBroken clouds.17 mph81%30.01 "HgN/A
11:20 AM39 °FScattered clouds.15 mph87%30.01 "HgN/A
10:20 AM37 °FScattered clouds.12 mph87%30.01 "HgN/A
9:20 AM36 °FScattered clouds.10 mph93%30.01 "HgN/A
8:20 AM36 °FScattered clouds.13 mph93%29.98 "HgN/A
7:20 AM36 °FPartly cloudy.13 mph93%29.98 "HgN/A
6:20 AM36 °FPartly cloudy.14 mph93%29.98 "HgN/A
5:20 AM34 °FPassing clouds.9 mph93%29.95 "HgN/A
4:20 AM37 °FPassing clouds.14 mph87%29.95 "HgN/A
3:20 AM37 °FPassing clouds.13 mph87%29.95 "HgN/A
2:20 AM37 °FSprinkles. Partly cloudy.14 mph93%29.92 "Hg6 mi
1:20 AM37 °FPassing clouds.12 mph93%29.92 "HgN/A
12:20 AM37 °FPassing clouds.12 mph93%29.92 "HgN/A
11:20 PM
Jan 26
37 °FPassing clouds.13 mph93%29.92 "HgN/A
10:20 PM39 °FPartly cloudy.15 mph93%29.89 "HgN/A
9:20 PM39 °FPartly cloudy.12 mph93%29.89 "HgN/A
Weather by CustomWeather, © 2014

See weather overviewHow to use our weather pages